Regional Weather Roundup
Issued by NWS Wakefield, VA

Home | Current Version | Previous Version | Text Only | Print | Product List | Glossary Off
Versions: 1 2 3 4 5 6 7 8 9 10 11 12 13 14 15 16 17 18 19 20 21 22 23 24 25 26 27

000
ASUS41 KAKQ 241814
RWRAKQ

REGIONAL WEATHER ROUNDUP
NATIONAL WEATHER SERVICE WAKEFIELD VA
100 PM EST FRI FEB 24 2017

Note: "fair" indicates few or no clouds below 12,000 feet with no
significant weather and/or obstructions to visibility. * = Denotes
station may not report precipitation (e.g., rain,snow,etc.),
thunder or fog.

VAZ042-051-052>054-056-241900-
NORTHERN VIRGINIA

CITY           SKY/WX    TMP DP  RH WIND       PRES   REMARKS
WASH NATIONAL  PTSUNNY   76  54  46 S16       29.86F
DULLES         PTSUNNY   75  52  44 S13G20    29.84F
FORT BELVOIR   SUNNY     74  52  46 S9G18     29.86F
QUANTICO       MOSUNNY   62  52  69 S16       29.87F
FREDERICKSBRG* PTSUNNY   76  54  46 S16G23    29.86F
STAFFORD*      MOSUNNY   74  53  47 S12       29.90F
WARRENTON      PTSUNNY   77  48  36 SW12G21   29.85F
CULPEPER*      PTSUNNY   76  54  46 S10G20    29.87F
MANASSAS*        N/A     76  53  44 SW10G18   29.85F
LEESBURG*      MOSUNNY   75  55  50 MISG      29.85F
WINCHESTER     SUNNY     73  50  43 S10       29.82F
FRONT ROYAL*   NOT AVBL
LURAY*         NOT AVBL
$$

VAZ048-049-060>072-079>083-241900-
CENTRAL AND SOUTH CENTRAL VIRGINIA

CITY           SKY/WX    TMP DP  RH WIND       PRES   REMARKS
RICHMOND       MOSUNNY   72  56  57 S10       29.89F
CHESTERFIELD*  FAIR      73  46  38 S8        29.91F
PETERSBURG*    PTSUNNY   72  54  53 SW7       29.90F
HANOVER        MOSUNNY   72  54  53 S8G17     29.90F
TAPPAHANNOCK*  MOSUNNY   73  48  41 S10       29.90F
QUINTON*       NOT AVBL
CHARLOTTSVILLE PTSUNNY   77  53  43 S17G24    29.86F
GORDONSVILLE*  NOT AVBL
ORANGE*        PTSUNNY   72  52  49 S10G20    29.88F
LOUISA*        MOSUNNY   79  55  44 SW10      29.86F
BUMPASS*       NOT AVBL
FARMVILLE*     PTSUNNY   74  55  51 SW8       29.87F
CREWE*         NOT AVBL
FORT PICKETT*  NOT AVBL
CHASE CITY*    NOT AVBL
CLARKSVILLE*   NOT AVBL
SOUTH HILL*    PTSUNNY   71  59  66 SW6       29.95F
LAWRENCEVILLE* NOT AVBL
EMPORIA*       CLOUDY    72  55  56 SE8       29.91F
$$

VAZ088>098-241900-
SOUTHEAST VIRGINIA

CITY           SKY/WX    TMP DP  RH WIND       PRES   REMARKS
NORFOLK        CLOUDY    65  55  70 N6        29.90F
VIRGINIA BEACH PTSUNNY   73  58  59 E14       29.90F
NORFOLK NAVAL  MOSUNNY   69  56  62 E8        29.91F
WEST POINT*    MOSUNNY   74  55  50 SE8       29.91F
SALUDA*        NOT AVBL
NEWPORT NEWS   PTSUNNY   75  55  49 S9        29.90F
LANGLEY AFB    MOSUNNY   75  58  55 S3        29.89F
FORT EUSTIS    PTSUNNY   75  57  54 S7        29.88F
WILLIAMSBURG*  SUNNY     75  61  60 SE5       29.91F
HR EXEC AP*    NOT AVBL
FRANKLIN*      CLOUDY    73  56  53 S8        29.90F
US460-WAKEFLD  PTSUNNY   73  58  59 S8        29.89F
$$

VAZ020-022-025-037-045-241900-
WEST CENTRAL AND SOUTHWEST VIRGINIA

CITY           SKY/WX    TMP DP  RH WIND       PRES   REMARKS
STAUNTON*      MOSUNNY   72  51  48 S8        29.87F
WAYNESBORO*    NOT AVBL
HOT SPRINGS VA MOSUNNY   63  45  51 SE8       29.93F
LYNCHBURG      MOSUNNY   72  52  49 S12       29.88F
DANVILLE       SUNNY     74  54  49 CALM      29.87F
SOUTH BOSTON*  NOT AVBL
MARTINSVILLE   PTSUNNY   72  52  48 SW5       29.91F
ROANOKE        MOSUNNY   73  52  47 S7        29.88F
BLACKSBURG     SUNNY     70  51  51 S12       29.91F
DUBLIN*        SUNNY     72  50  46 S12       29.89F
MARION*        SUNNY     73  48  41 SE6       29.89F
HILLSVILLE*    MOSUNNY   66  52  62 S8G20     29.90F
RICHLANDS*     FAIR      71  46  40 S6        29.87F
WISE*          SUNNY     70  43  37 S9G18     29.86F
ABINGDON*      SUNNY     74  46  37 W8        29.85F
$$

MDZ021>025-VAZ099-100-241900-
SOUTHERN MARYLAND AND THE DELMARVA PENINSULA

CITY           SKY/WX    TMP DP  RH WIND       PRES   REMARKS
PATUXENT RIVER MOSUNNY   63  57  81 SE12      29.90F
BAY BRIDGE APT SUNNY     72  55  56 S14G23    29.88F
LEONARDTOWN    MOSUNNY   72  54  53 S10       29.91F
DOVER          PTSUNNY   71  61  70 S12       29.89F
GEORGETOWN     PTSUNNY   74  56  53 S10       29.91F
EASTON         PTSUNNY   72  55  56 S12       29.93F
CAMBRIDGE      MOSUNNY   72  57  60 S14       29.90F
SALISBURY      CLOUDY    72  57  59 S14       29.91F
OCEAN CITY     SUNNY     63  54  72 S5        29.94F
WALLOPS ISLAND MOSUNNY   69  60  73 S9        29.93F
ACCOMACK*      PTSUNNY   71  60  66 S10       29.92F
$$

NCZ012>017-030>032-241900-
NORTH CENTRAL AND EASTERN NORTH CAROLINA

CITY           SKY/WX    TMP DP  RH WIND       PRES   REMARKS
ROANOKE RAPIDS MOCLDY    73  59  60 SW5       29.90F
RALEIGH        MOSUNNY   74  56  53 CALM      29.90F
ELIZABETH CITY MOSUNNY   74  60  61 E13       29.91F
AHOSKIE*         N/A     73  57  56 SE3       29.90F
EDENTON*       MOSUNNY   76  58  55 SE6       29.91F
CURRITUCK*     PTSUNNY   72  58  62 E5        29.92F
KILL DEVIL HLS NOT AVBL
MANTEO         MOSUNNY   70  60  70 E6        29.92F
CAPE HATTERAS  MOSUNNY   76  61  59 SE12      29.90F HAZE
TARBORO*       NOT AVBL
GOLDSBORO      MOSUNNY   78  58  50 NE6       29.86F
WASHINGTON     MOSUNNY   77  58  52 SE8       29.89F
GREENVILLE     MOSUNNY   75  59  57 SE6       29.91F
NEW BERN       MOSUNNY   76  60  57 SE8       29.89F
WILMINGTON     MOSUNNY   75  61  61 E10       29.88F
$$

VAZ048-241900-
ELSEWHERE

CITY           SKY/WX    TMP DP  RH WIND       PRES   REMARKS
HARRISBURG PA  PTSUNNY   75  51  43 SW10G21   29.81F
BALTIMORE      PTSUNNY   72  55  55 SE12G17   29.85F
ANNAPOLIS      SUNNY     57  52  83 SE15      29.88F
ANDREWS AFB    SUNNY     74  53  48 S14G24    29.86F
PHILADELPHIA   MOSUNNY   72  54  53 SW12      29.89F
HENDERSON NC   MOSUNNY   68  54  60 CALM      29.90F
GREENSBORO     MOSUNNY   72  54  53 S10       29.88F
ROCKY MOUNT    MOSUNNY   75  58  55 CALM      29.89F
$$

VAZ100-241900-
MARINE

STATION/POSITION TIME  TEMP    WIND        PRES    WAVE   SWELL
                       AIR SEA DIR/SP/G            HT/PER HT/PER
                 (UTC) (F)     (DEG/KT/KT) (MB)    (FT/S) (FT/S)
CAPE MAY NJ      1748   64 44  160/ 12/ 17 1012.8F
LEWES DE         1748   68 44  140/  8/ 12 1012.7F
OCEAN-CITY-INLET 1748   53 45  190/  5/  8 1014.2F
WACHAPREAGUE VA  1748   64 57  170/  7/  8 1013.6F
THOMAS POINT MD  1800   60 44  160/ 19/ 19   N/A
GOOSES REEF MD   1800   51 45  150/ 12/ 14 1012.8
COVE POINT MD    1748   50     180/ 11/ 11 1013.2F
SOLOMONS ISLAND  1748   58 45  120/ 13/ 14   N/A
BISHOPS HEAD MD  1748   52 50  150/  9/ 11 1013.4F
PINEY POINT MD   1748          140/  8/  9   N/A
POTOMAC MD       1800   52 48  150/  6/  8 1011.8    1/ 2
CAMBRIDGE MD     1748   70 44  200/ 10/ 15 1011.9F
LEWISETTA VA     1748   58 46   80/  7/  9 1012.2F
RAPPAHANNOCK LGT 1748          210/  6/  6 1013.6F
YORK RVR RNG VA  1748   57     110/ 10/ 11 1012.2F
YORKTOWN VA      1748   56 49   80/ 11/ 13 1012.3F
JAMESTOWN VA     1800   69 53   90/  4/  8   N/A     0
DOMINION TERM VA 1748   69      80/  3/  4 1012.6F
KIPTOPEKE VA     1748      49  150/  9/ 12   N/A
CHES BAY BRIDGE  1748   56 48   90/ 12/ 14 1012.7F
CAPE HENRY VA    1748   62     140/  9/ 11   N/A
WILLOUBY STN VA  1748   55      80/ 10/ 11 1013.6F
S CRANEY ISL VA  1748   65     360/  2/  4 1012.4F
CAPE HENRY BUOY  1742      50                N/A     4/12   2/12
OFFSHORE WE BUOY 1751      50                N/A     5/ 8   2/12
64NM E OF VA BCH 1750   60 55   90/  6/  6 1013.2F   6/12   5/12
DUCK PIER NC     1748   58 50   70/  9/ 10 1012.6F
44100 DUCK FRF   1705      51                N/A     5/11   2/11
44056 DUCK FRF   1730      53                N/A     4/12   3/12
OREGON INLET NC  1742   60 56   40/  9/ 11 1012.9F
HATTERAS NC      1748   70 62  100/  7/ 10 1012.0F
DIAMOND SHLS NC  1750   72 74  120/ 16/ 19 1011.9F   7/10   5/10
CAPE LOOKOUT NC  1800   67      40/ 10/ 10 1011.5F
$$




USA.gov is the U.S. government's official web portal to all federal, state and local government web resources and services.